GW5255 Weather Reports


Display with metric or nautical units.
time (UTC)temp
F
wind
direction
speed
MPH
gust
MPH
rain 1hr
in
rain 24hr
in
rain mn
in
humidity
%
barometer
mb
20260510225257 71 282 2.0 3.0 0.00 0.00 0.00 62 1017.7
20260510224753 71 45 1.0 3.0 0.00 0.00 0.00 63 1017.5
20260510224250 71 350 1.0 6.0 0.00 0.00 0.00 62 1017.6
20260510223747 72 29 2.0 4.0 0.00 0.00 0.00 63 1017.5
20260510223244 74 306 0.0 1.0 0.00 0.00 0.00 60 1017.5
20260510222742 72 22 1.0 6.0 0.00 0.00 0.00 63 1017.9
20260510222238 72 275 1.0 2.0 0.00 0.00 0.00 64 1017.6
20260510221734 72 65 2.0 2.0 0.00 0.00 0.00 64 1017.9
20260510221231 72 300 4.0 6.0 0.00 0.00 0.00 65 1017.7
20260510220727 72 264 2.0 2.0 0.00 0.00 0.00 65 1017.5
20260510220223 72 32 0.0 2.0 0.00 0.00 0.00 69 1017.4
20260510215720 73 43 1.0 4.0 0.00 0.00 0.00 65 1017.3
20260510215218 73 273 0.0 0.0 0.00 0.00 0.00 65 1017.2
20260510214715 73 271 0.0 0.0 0.00 0.00 0.00 66 1017.2
20260510214212 72 276 0.0 2.0 0.00 0.00 0.00 66 1017.1
20260510213708 72 234 0.0 2.0 0.00 0.00 0.00 67 1017.0
20260510213205 73 264 1.0 2.0 0.00 0.00 0.00 67 1017.0
20260510212701 74 160 1.0 2.0 0.00 0.00 0.00 63 1017.0
20260510212159 73 198 0.0 2.0 0.00 0.00 0.00 65 1016.9
20260510211655 73 258 1.0 3.0 0.00 0.00 0.00 64 1016.9
20260510211150 74 157 0.0 0.0 0.00 0.00 0.00 65 1016.8
20260510210647 73 285 0.0 1.0 0.00 0.00 0.00 63 1016.9
20260510210142 73 115 0.0 3.0 0.00 0.00 0.00 65 1017.0
20260510205641 73 55 0.0 3.0 0.00 0.00 0.00 64 1017.0
20260510205137 73 251 2.0 2.0 0.00 0.00 0.00 64 1016.7
20260510204634 73 37 2.0 4.0 0.00 0.00 0.00 65 1016.9
20260510204130 73 263 4.0 6.0 0.00 0.00 0.00 64 1016.7
20260510203627 73 277 2.0 3.0 0.00 0.00 0.00 64 1016.9
20260510203125 74 336 2.0 2.0 0.00 0.00 0.00 62 1016.7
20260510202619 75 11 2.0 3.0 0.00 0.00 0.00 62 1016.8
20260510202114 74 357 2.0 4.0 0.00 0.00 0.00 62 1016.9
20260510201612 73 214 2.0 4.0 0.00 0.00 0.00 61 1016.8
20260510201109 74 55 1.0 4.0 0.00 0.00 0.00 61 1016.7
20260510200605 74 267 4.0 6.0 0.00 0.00 0.00 57 1016.9
20260510195600 74 288 2.0 6.0 0.00 0.00 0.00 64 1016.8
20260510195055 75 284 5.0 10.0 0.00 0.00 0.00 60 1016.9
20260510194550 75 17 5.0 8.0 0.00 0.00 0.00 60 1017.1
20260510194047 74 258 0.0 1.0 0.00 0.00 0.00 63 1017.0
20260510193547 73 117 0.0 3.0 0.00 0.00 0.00 64 1017.2
20260510193043 73 47 1.0 8.0 0.00 0.00 0.00 65 1017.2
20260510192543 72 359 1.0 2.0 0.00 0.00 0.00 65 1017.2
20260510192039 72 16 0.0 4.0 0.00 0.00 0.00 65 1017.2
20260510191536 73 279 3.0 7.0 0.00 0.00 0.00 62 1017.2
20260510191032 73 347 4.0 9.0 0.00 0.00 0.00 61 1017.2
20260510190530 73 268 2.0 3.0 0.00 0.00 0.00 61 1017.2
20260510190027 73 73 1.0 4.0 0.00 0.00 0.00 62 1017.1
20260510185524 73 275 4.0 6.0 0.00 0.00 0.00 59 1017.2
20260510185021 74 212 1.0 4.0 0.00 0.00 0.00 57 1017.3
20260510184519 74 300 3.0 4.0 0.00 0.00 0.00 59 1017.1
20260510184014 74 19 1.0 3.0 0.00 0.00 0.00 58 1017.0
20260510183509 74 336 2.0 4.0 0.00 0.00 0.00 57 1016.9
20260510183005 74 340 0.0 3.0 0.00 0.00 0.00 55 1017.2
20260510182502 75 241 2.0 6.0 0.00 0.00 0.00 55 1017.2
20260510181956 75 257 1.0 6.0 0.00 0.00 0.00 57 1017.2
20260510181455 76 249 2.0 4.0 0.00 0.00 0.00 55 1016.9
20260510180950 75 339 2.0 3.0 0.00 0.00 0.00 55 1016.9
20260510180448 75 157 2.0 6.0 0.00 0.00 0.00 54 1016.8
20260510175945 76 329 3.0 11.0 0.00 0.00 0.00 54 1016.9
20260510175441 76 203 4.0 9.0 0.00 0.00 0.00 54 1016.8
20260510174936 75 23 4.0 9.0 0.00 0.00 0.00 59 1016.8
20260510174435 75 38 3.0 8.0 0.00 0.00 0.00 57 1016.7
20260510173931 75 350 2.0 3.0 0.00 0.00 0.00 56 1016.9
20260510173427 75 9 0.0 1.0 0.00 0.00 0.00 57 1017.0
20260510172924 75 311 3.0 4.0 0.00 0.00 0.00 60 1016.9
20260510172420 74 333 2.0 3.0 0.00 0.00 0.00 58 1016.9
20260510171916 74 224 1.0 7.0 0.00 0.00 0.00 56 1017.0
20260510171413 75 323 1.0 7.0 0.00 0.00 0.00 59 1017.1
20260510170910 75 272 3.0 7.0 0.00 0.00 0.00 57 1016.8
20260510170406 75 199 4.0 4.0 0.00 0.00 0.00 55 1016.8
20260510165901 74 309 2.0 6.0 0.00 0.00 0.00 58 1017.1
20260510165358 73 37 2.0 4.0 0.00 0.00 0.00 60 1017.2
20260510164855 72 20 2.0 3.0 0.00 0.00 0.00 61 1017.1
20260510164353 72 4 1.0 2.0 0.00 0.00 0.00 58 1017.3
20260510163852 72 205 0.0 1.0 0.00 0.00 0.00 62 1017.1
20260510163350 72 27 1.0 2.0 0.00 0.00 0.00 59 1017.1
20260510162849 74 20 2.0 4.0 0.00 0.00 0.00 58 1016.9
20260510162347 75 70 3.0 7.0 0.00 0.00 0.00 56 1017.1
20260510161842 76 306 3.0 6.0 0.00 0.00 0.00 55 1016.9
20260510161339 74 220 0.0 4.0 0.00 0.00 0.00 56 1017.0
20260510160836 74 301 4.0 7.0 0.00 0.00 0.00 56 1017.1
20260510160333 74 289 4.0 13.0 0.00 0.00 0.00 57 1017.2
20260510155832 73 315 3.0 9.0 0.00 0.00 0.00 55 1017.1
20260510155330 74 269 3.0 7.0 0.00 0.00 0.00 55 1017.0
20260510154825 74 268 8.0 10.0 0.00 0.00 0.00 55 1017.0
20260510154321 74 16 2.0 10.0 0.00 0.00 0.00 56 1017.0
20260510153815 73 21 4.0 10.0 0.00 0.00 0.00 58 1017.1
20260510153312 74 352 7.0 9.0 0.00 0.00 0.00 56 1016.9
20260510152809 73 0 0.0 3.0 0.00 0.00 0.00 56 1017.0
20260510152307 73 13 4.0 8.0 0.00 0.00 0.00 59 1017.0
20260510151801 72 21 5.0 6.0 0.00 0.00 0.00 58 1016.9
20260510151300 73 300 3.0 6.0 0.00 0.00 0.00 57 1017.0
20260510150755 72 57 4.0 6.0 0.00 0.00 0.00 60 1017.0
20260510150251 72 355 3.0 4.0 0.00 0.00 0.00 60 1016.8
20260510145747 71 298 0.0 6.0 0.00 0.00 0.00 59 1016.6
20260510145245 71 20 0.0 4.0 0.00 0.00 0.00 64 1016.7
20260510144740 71 247 2.0 6.0 0.00 0.00 0.00 60 1016.9
20260510144238 71 315 2.0 3.0 0.00 0.00 0.00 60 1017.0
20260510143731 70 41 2.0 4.0 0.00 0.00 0.00 61 1017.1
20260510143228 69 288 3.0 7.0 0.00 0.00 0.00 63 1017.0
20260510142725 69 349 1.0 4.0 0.00 0.00 0.00 63 1017.1
20260510142221 69 106 5.0 7.0 0.00 0.00 0.00 63 1017.2
20260510141719 68 3 1.0 2.0 0.00 0.00 0.00 69 1016.9
20260510141217 68 58 1.0 1.0 0.00 0.00 0.00 71 1017.2
20260510140713 68 124 4.0 4.0 0.00 0.00 0.00 68 1016.9
20260510140214 67 56 0.0 3.0 0.00 0.00 0.00 69 1017.1
20260510135708 66 59 0.0 2.0 0.00 0.00 0.00 74 1017.1
20260510135204 66 125 4.0 4.0 0.00 0.00 0.00 72 1017.1
20260510134702 66 71 0.0 2.0 0.00 0.00 0.00 75 1017.2
20260510134159 65 57 2.0 2.0 0.00 0.00 0.00 74 1017.4
20260510133655 64 41 2.0 2.0 0.00 0.00 0.00 78 1017.2
20260510133150 64 69 0.0 0.0 0.00 0.00 0.00 81 1017.2
20260510132647 64 47 1.0 1.0 0.00 0.00 0.00 80 1017.0
20260510132144 65 59 1.0 2.0 0.00 0.00 0.00 78 1016.9
20260510131642 63 50 1.0 2.0 0.00 0.00 0.00 78 1016.9
20260510131139 63 62 0.0 1.0 0.00 0.00 0.00 81 1016.9
20260510130635 63 67 1.0 1.0 0.00 0.00 0.00 80 1017.1
20260510130133 62 30 1.0 2.0 0.00 0.00 0.00 86 1016.7
20260510125629 62 60 0.0 2.0 0.00 0.00 0.00 86 1016.9
20260510125125 62 63 0.0 0.0 0.00 0.00 0.00 87 1016.9
20260510124622 62 62 0.0 0.0 0.00 0.00 0.00 83 1016.9
20260510124119 61 151 0.0 2.0 0.00 0.00 0.00 80 1017.0
20260510123615 60 81 0.0 1.0 0.00 0.00 0.00 88 1017.0
20260510123111 59 67 2.0 2.0 0.00 0.00 0.00 89 1016.8
20260510122607 58 90 0.0 1.0 0.00 0.00 0.00 87 1016.7
20260510122103 57 77 2.0 2.0 0.00 0.00 0.00 92 1016.7
20260510121600 56 83 0.0 1.0 0.00 0.00 0.00 93 1016.7
20260510121057 55 70 0.0 2.0 0.00 0.00 0.00 95 1016.7
20260510120555 55 94 1.0 2.0 0.00 0.00 0.00 94 1016.7
20260510120050 55 104 0.0 2.0 0.00 0.00 0.00 93 1016.5
20260510115547 54 91 1.0 2.0 0.00 0.00 0.00 95 1016.6
20260510115044 53 76 0.0 3.0 0.00 0.00 0.00 96 1016.7
20260510114539 53 82 2.0 3.0 0.00 0.00 0.00 96 1016.4
20260510114036 52 86 2.0 3.0 0.00 0.00 0.00 96 1016.6
20260510113531 52 79 0.0 3.0 0.00 0.00 0.00 95 1016.6
20260510113029 51 87 0.0 0.0 0.00 0.00 0.00 95 1016.4
20260510112526 51 73 0.0 0.0 0.00 0.00 0.00 96 1016.3
20260510112022 50 70 1.0 1.0 0.00 0.00 0.00 98 1016.2
20260510111519 49 75 0.0 0.0 0.00 0.00 0.00 99 1016.0
20260510111015 49 83 0.0 1.0 0.00 0.00 0.00 99 1016.0
20260510110511 49 92 2.0 2.0 0.00 0.00 0.00 99 1015.7
20260510110007 48 87 2.0 3.0 0.00 0.00 0.00 99 1015.7
20260510105502 48 90 1.0 2.0 0.00 0.00 0.00 99 1015.9
20260510104958 48 82 3.0 3.0 0.00 0.00 0.00 99 1015.7
20260510104454 48 47 1.0 3.0 0.00 0.00 0.00 99 1015.7
20260510103951 48 80 2.0 2.0 0.00 0.00 0.00 99 1015.6
20260510103448 48 90 2.0 2.0 0.00 0.00 0.00 99 1015.6
20260510102943 48 85 2.0 2.0 0.00 0.00 0.00 99 1015.6
20260510102439 48 84 2.0 3.0 0.00 0.00 0.00 99 1015.5
20260510101936 48 88 2.0 2.0 0.00 0.00 0.00 99 1015.3
20260510101434 48 85 2.0 3.0 0.00 0.00 0.00 99 1015.6
20260510100932 48 82 1.0 2.0 0.00 0.00 0.00 99 1015.4
20260510100428 47 79 1.0 1.0 0.00 0.00 0.00 99 1015.4
20260510095924 48 78 0.0 0.0 0.00 0.00 0.00 99 1015.6
20260510095420 48 78 0.0 1.0 0.00 0.00 0.00 99 1015.3
20260510094919 48 78 0.0 1.0 0.00 0.00 0.00 99 1015.2
20260510094414 48 73 1.0 1.0 0.00 0.00 0.00 99 1015.0
20260510093911 47 70 0.0 0.0 0.00 0.00 0.00 99 1015.1
20260510093406 47 71 0.0 0.0 0.00 0.00 0.00 99 1015.0
20260510092904 47 71 0.0 0.0 0.00 0.00 0.00 99 1014.8
20260510092401 48 71 0.0 0.0 0.00 0.00 0.00 99 1015.0
20260510091901 49 94 0.0 0.0 0.00 0.00 0.00 99 1014.9
20260510091358 49 89 0.0 3.0 0.00 0.00 0.00 99 1014.6
20260510090855 48 68 2.0 2.0 0.00 0.00 0.00 99 1014.5
20260510090351 48 71 0.0 0.0 0.00 0.00 0.00 98 1014.7
20260510085847 49 98 0.0 0.0 0.00 0.00 0.00 98 1014.8
20260510085342 49 100 0.0 0.0 0.00 0.00 0.00 98 1014.7
20260510084838 49 86 2.0 2.0 0.00 0.00 0.00 98 1014.8
20260510084335 50 89 2.0 2.0 0.00 0.00 0.00 98 1014.5
20260510083832 50 103 1.0 2.0 0.00 0.00 0.00 98 1014.5
20260510083328 50 88 2.0 3.0 0.00 0.00 0.00 98 1014.5
20260510082824 50 90 2.0 3.0 0.00 0.00 0.00 98 1014.5
20260510082321 50 91 2.0 3.0 0.00 0.00 0.00 98 1014.3
20260510081820 50 86 2.0 3.0 0.00 0.00 0.00 98 1014.3
20260510081316 50 89 3.0 3.0 0.00 0.00 0.00 98 1014.3
20260510080812 50 80 2.0 2.0 0.00 0.00 0.00 98 1014.3
20260510080307 50 64 1.0 2.0 0.00 0.00 0.00 97 1014.1
20260510075805 52 76 0.0 2.0 0.00 0.00 0.00 97 1014.2
20260510075305 51 72 0.0 2.0 0.00 0.00 0.00 97 1014.2
20260510074759 52 99 1.0 1.0 0.00 0.00 0.00 98 1014.2
20260510074255 52 99 3.0 3.0 0.00 0.00 0.00 99 1014.1
20260510073752 51 87 2.0 3.0 0.00 0.00 0.00 99 1014.1
20260510073248 50 109 2.0 3.0 0.00 0.00 0.00 99 1014.1
20260510072743 50 93 2.0 2.0 0.00 0.00 0.00 99 1014.1
20260510072240 50 67 2.0 3.0 0.00 0.00 0.00 99 1014.3
20260510071737 50 85 4.0 4.0 0.00 0.00 0.00 99 1014.0
20260510071233 50 93 3.0 3.0 0.00 0.00 0.00 99 1013.9
20260510070732 50 71 3.0 3.0 0.00 0.00 0.00 99 1013.9
20260510070229 50 85 3.0 3.0 0.00 0.00 0.00 99 1014.0
20260510065723 50 92 2.0 3.0 0.00 0.00 0.00 99 1014.0
20260510065220 50 89 2.0 3.0 0.00 0.00 0.00 98 1014.2
20260510064717 50 84 4.0 4.0 0.00 0.00 0.00 98 1014.1
20260510064215 50 80 4.0 4.0 0.00 0.00 0.00 98 1014.0
20260510063711 51 95 2.0 3.0 0.00 0.00 0.00 98 1014.1
20260510063207 51 65 2.0 3.0 0.00 0.00 0.00 98 1014.0
20260510062704 52 88 2.0 3.0 0.00 0.00 0.00 98 1014.2
20260510062200 52 100 3.0 4.0 0.00 0.00 0.00 98 1014.0
20260510061655 52 85 3.0 3.0 0.00 0.00 0.00 98 1014.0
20260510061153 52 89 1.0 3.0 0.00 0.00 0.00 98 1014.2
20260510060649 52 93 2.0 3.0 0.00 0.00 0.00 98 1014.2
20260510060145 52 81 1.0 2.0 0.00 0.00 0.00 98 1014.1
20260510055642 52 90 2.0 3.0 0.00 0.00 0.00 99 1014.3
20260510055140 52 97 3.0 3.0 0.00 0.00 0.00 98 1014.2
20260510054635 52 95 2.0 3.0 0.00 0.00 0.00 98 1014.1
20260510054131 52 92 2.0 3.0 0.00 0.00 0.00 99 1014.3
20260510053630 52 95 2.0 3.0 0.00 0.00 0.00 99 1014.3
20260510053127 51 89 1.0 3.0 0.00 0.00 0.00 99 1014.3
20260510052623 51 91 3.0 3.0 0.00 0.00 0.00 99 1014.4
20260510052120 51 90 2.0 3.0 0.00 0.00 0.00 99 1014.4
20260510051615 51 89 3.0 3.0 0.00 0.00 0.00 99 1014.3
20260510051112 51 79 2.0 2.0 0.00 0.00 0.00 99 1014.4
20260510050609 51 77 2.0 2.0 0.00 0.00 0.00 99 1014.4
20260510050106 51 89 3.0 3.0 0.00 0.00 0.00 99 1014.5
20260510045603 51 76 2.0 2.0 0.00 0.00 0.00 98 1014.4
20260510045059 51 75 2.0 2.0 0.00 0.00 0.00 98 1014.6
20260510044556 51 69 1.0 2.0 0.00 0.00 0.00 98 1014.5
20260510044054 51 85 2.0 2.0 0.00 0.00 0.00 98 1014.5
20260510043549 51 87 2.0 3.0 0.00 0.00 0.00 98 1014.4
20260510043045 51 90 3.0 3.0 0.00 0.00 0.00 98 1014.6
20260510042544 51 80 1.0 2.0 0.00 0.00 0.00 98 1014.7
20260510042040 52 84 2.0 3.0 0.00 0.00 0.00 98 1014.7
20260510041537 52 87 2.0 3.0 0.00 0.00 0.00 98 1014.7
20260510041034 52 90 2.0 3.0 0.00 0.00 0.00 98 1014.6
20260510040531 52 91 2.0 3.0 0.00 0.00 0.00 98 1014.6
20260510040027 52 78 1.0 2.0 0.00 0.00 0.00 98 1014.6
20260510035524 52 79 1.0 3.0 0.00 0.00 0.00 98 1014.7
20260510035023 52 74 1.0 3.0 0.00 0.00 0.00 98 1014.5
20260510034522 52 81 1.0 2.0 0.00 0.00 0.00 98 1014.8
20260510034018 52 84 2.0 2.0 0.00 0.00 0.00 97 1014.6
20260510033514 53 87 2.0 2.0 0.00 0.00 0.00 97 1014.6
20260510033012 53 86 1.0 2.0 0.00 0.00 0.00 97 1014.7
20260510032508 53 79 1.0 2.0 0.00 0.00 0.00 96 1014.5
20260510032008 54 83 2.0 2.0 0.00 0.00 0.00 96 1014.5
20260510031504 54 80 1.0 2.0 0.00 0.00 0.00 96 1014.6
20260510031000 54 92 1.0 2.0 0.00 0.00 0.00 95 1014.4
20260510030455 54 80 1.0 1.0 0.00 0.00 0.00 96 1014.6
20260510025953 54 82 1.0 2.0 0.00 0.00 0.00 96 1014.5
20260510025450 54 80 2.0 2.0 0.00 0.00 0.00 96 1014.4
20260510024948 54 73 1.0 3.0 0.00 0.00 0.00 96 1014.2
20260510024444 54 85 2.0 3.0 0.00 0.00 0.00 95 1014.2
20260510023940 55 81 2.0 2.0 0.00 0.00 0.00 95 1014.1
20260510023436 55 96 2.0 3.0 0.00 0.00 0.00 94 1014.3
20260510022933 55 87 2.0 2.0 0.00 0.00 0.00 94 1014.2
20260510022432 55 73 1.0 2.0 0.00 0.00 0.00 93 1014.1
20260510021932 56 88 1.0 2.0 0.00 0.00 0.00 92 1014.1
20260510021430 56 74 1.0 2.0 0.00 0.00 0.00 92 1013.8
20260510020926 56 78 1.0 2.0 0.00 0.00 0.00 91 1013.6
20260510020421 57 73 0.0 0.0 0.00 0.00 0.00 91 1013.6
20260510015917 56 80 0.0 1.0 0.00 0.00 0.00 91 1013.7
20260510015413 56 69 0.0 0.0 0.00 0.00 0.00 91 1013.6
20260510014908 56 69 0.0 0.0 0.00 0.00 0.00 91 1013.4
20260510014406 57 95 0.0 0.0 0.00 0.00 0.00 90 1013.1
20260510013902 57 94 0.0 0.0 0.00 0.00 0.00 89 1013.3
20260510013357 58 94 0.0 0.0 0.00 0.00 0.00 88 1013.2
20260510012852 58 88 1.0 2.0 0.00 0.00 0.00 87 1013.1
20260510012347 58 79 0.0 0.0 0.00 0.00 0.00 87 1013.1
20260510011842 58 81 0.0 0.0 0.00 0.00 0.00 86 1013.1
20260510011338 58 91 0.0 0.0 0.00 0.00 0.00 86 1012.8
20260510010834 58 92 0.0 0.0 0.00 0.00 0.00 86 1012.7
20260510010332 59 92 0.0 0.0 0.00 0.00 0.00 84 1012.7
20260510005828 60 92 0.0 0.0 0.00 0.00 0.00 83 1012.7
20260510005325 60 91 0.0 0.0 0.00 0.00 0.00 82 1012.6
20260510004822 60 86 0.0 0.0 0.00 0.00 0.00 82 1012.5
20260510004320 61 87 0.0 0.0 0.00 0.00 0.00 81 1012.6
20260510003817 61 107 0.0 0.0 0.00 0.00 0.00 81 1012.5
20260510003314 61 78 0.0 1.0 0.00 0.00 0.00 80 1012.3
20260510002813 62 144 0.0 0.0 0.00 0.00 0.00 79 1012.3
20260510002310 62 121 0.0 0.0 0.00 0.00 0.00 78 1012.1
20260510001806 62 152 0.0 0.0 0.00 0.00 0.00 78 1012.3
20260510001305 63 141 1.0 1.0 0.00 0.00 0.00 78 1012.2
20260510000800 63 149 0.0 0.0 0.00 0.00 0.00 76 1012.0
20260510000258 64 187 0.0 1.0 0.00 0.00 0.00 75 1011.9
20260509235755 64 127 0.0 1.0 0.00 0.00 0.00 74 1012.0
20260509235251 64 176 1.0 1.0 0.00 0.00 0.00 74 1012.1
20260509234747 65 195 0.0 3.0 0.00 0.00 0.00 72 1011.9
20260509234244 65 133 0.0 1.0 0.00 0.00 0.00 72 1011.9
20260509233743 67 166 0.0 3.0 0.00 0.00 0.00 69 1011.9
20260509233240 68 222 2.0 2.0 0.00 0.00 0.00 68 1012.0
20260509232736 69 181 0.0 2.0 0.00 0.00 0.00 66 1011.8
20260509232233 69 94 1.0 3.0 0.00 0.00 0.00 64 1012.0
20260509231729 69 40 2.0 2.0 0.00 0.00 0.00 65 1012.0
20260509231227 69 34 1.0 3.0 0.00 0.00 0.00 64 1011.9
20260509230724 70 45 0.0 2.0 0.00 0.00 0.00 66 1011.8
20260509230221 70 192 1.0 2.0 0.00 0.00 0.00 66 1011.7
20260509225716 70 198 1.0 4.0 0.00 0.00 0.00 65 1011.8